Platteville, WI

8:55 PM CST on December 11, 2017 (GMT -0600)
Platteville Municipal

Weather History for KPVB - April, 2013

Change the Weather History Date:

Monday, April 8, 2013

  Actual Average (KDBQ) Record (KDBQ)
Temperature  
Mean Temperature 52 °F -  
Max Temperature 64 °F 52 °F 84 °F (1931)
Min Temperature 39 °F 34 °F 12 °F (1972)
Degree Days  
Heating Degree Days 14    
Growing Degree Days 2 (Base 50)    
Moisture  
Dew Point 43 °F    
Average Humidity 77    
Maximum Humidity 93    
Minimum Humidity 59    
Precipitation  
Precipitation 0.37 in - - ()
Sea Level Pressure  
Sea Level Pressure 29.77 in    
Wind  
Wind Speed 12 mph (NE)    
Max Wind Speed 21 mph    
Max Gust Speed 25 mph    
Visibility 8 miles    
Events      
Averages and records for this station are not official NWS values.
T = Trace of Precipitation, MM = Missing Value Source: NWS Daily Summary

Daily Weather History Graph

Daily Weather History Graph

Search for Another Location

Airport or City:

Trip Planner

Search our weather history database for the weather conditions in past years. The results will help you decide how hot, cold, wet, or windy it might be!

Date:

Astronomy

Apr. 08, 2013 Rise Set
Actual Time 6:31 AM CDT 7:36 PM CDT
Civil Twilight 6:02 AM CDT 8:05 PM CDT
Nautical Twilight 5:28 AM CDT 8:39 PM CDT
Astronomical Twilight 4:52 AM CDT 9:16 PM CDT
Moon 5:23 AM CDT (4/8) 6:09 PM CDT (4/8)
Length of Visible Light 14h 02m
Length of Day
13h 04m
Waning Crescent, 3% of the Moon is Illuminated
Apr 8
Waning Crescent
Apr 10
New
Apr 18
First Quarter
Apr 25
Full
May 2
Last Quarter

Hourly Weather History & Observations

Time (CDT) Temp. Windchill Dew Point Humidity Pressure Visibility Wind Dir Wind Speed Gust Speed Precip Events Conditions
12:15 AM 44.6 °F 37.4 °F 37.4 °F 76% 29.81 in 10.0 mi ESE 16.1 mph - N/A   Clear
12:35 AM 42.8 °F 35.1 °F 35.6 °F 76% 29.81 in 10.0 mi East 16.1 mph - N/A   Clear
12:55 AM 42.8 °F 34.8 °F 35.6 °F 76% 29.81 in 10.0 mi East 17.3 mph - N/A   Clear
1:15 AM 41.0 °F 31.9 °F 35.6 °F 81% 29.80 in 10.0 mi East 19.6 mph - N/A   Clear
1:35 AM 41.0 °F 32.5 °F 35.6 °F 81% 29.80 in 10.0 mi East 17.3 mph - N/A   Clear
1:55 AM 41.0 °F 32.2 °F 33.8 °F 76% 29.78 in 10.0 mi East 18.4 mph - N/A   Clear
2:15 AM 41.0 °F 31.9 °F 33.8 °F 76% 29.76 in 10.0 mi East 19.6 mph - N/A   Clear
2:35 AM 41.0 °F 31.6 °F 33.8 °F 76% 29.75 in 10.0 mi East 20.7 mph 25.3 mph N/A   Clear
2:55 AM 41.0 °F 31.9 °F 33.8 °F 76% 29.75 in 10.0 mi ESE 19.6 mph - N/A   Clear
3:15 AM 39.2 °F 30.2 °F 33.8 °F 81% 29.74 in 10.0 mi East 17.3 mph 24.2 mph N/A   Clear
3:35 AM 41.0 °F 32.5 °F 33.8 °F 76% 29.72 in 10.0 mi East 17.3 mph - N/A   Scattered Clouds
3:55 AM 41.0 °F 32.2 °F 33.8 °F 76% 29.72 in 10.0 mi East 18.4 mph - N/A   Mostly Cloudy
4:15 AM 41.0 °F 32.5 °F 33.8 °F 76% 29.71 in 10.0 mi East 17.3 mph - N/A   Overcast
4:55 AM 41.0 °F 33.1 °F 33.8 °F 76% 29.69 in 10.0 mi East 15.0 mph - N/A   Overcast
5:15 AM 41.0 °F 34.3 °F 35.6 °F 81% 29.69 in 7.0 mi East 11.5 mph - N/A   Overcast
5:35 AM 41.0 °F 34.7 °F 35.6 °F 81% 29.68 in 5.0 mi East 10.4 mph - 0.01 in   Overcast
5:55 AM 41.0 °F 34.3 °F 35.6 °F 81% 29.66 in 5.0 mi East 11.5 mph - 0.05 in   Overcast
6:15 AM 41.0 °F 34.3 °F 35.6 °F 81% 29.65 in 4.0 mi ENE 11.5 mph - 0.05 in   Overcast
6:35 AM 41.0 °F 35.2 °F 37.4 °F 87% 29.65 in 3.0 mi NE 9.2 mph - 0.12 in   Overcast
6:55 AM 41.0 °F 35.8 °F 37.4 °F 87% 29.67 in 3.0 mi North 8.1 mph - 0.16 in   Overcast
7:15 AM 41.0 °F 35.8 °F 37.4 °F 87% 29.67 in 1.8 mi North 8.1 mph - 0.04 in   Overcast
7:35 AM 41.0 °F 34.3 °F 37.4 °F 87% 29.68 in 1.8 mi North 11.5 mph - 0.09 in   Overcast
7:55 AM 41.0 °F 33.5 °F 37.4 °F 87% 29.67 in 2.0 mi North 13.8 mph - 0.14 in   Overcast
8:15 AM 41.0 °F 33.1 °F 37.4 °F 87% 29.66 in 2.5 mi North 15.0 mph - 0.02 in   Overcast
8:35 AM 41.0 °F 33.1 °F 39.2 °F 93% 29.66 in 3.0 mi North 15.0 mph - 0.02 in   Overcast
8:55 AM 42.8 °F 34.8 °F 39.2 °F 87% 29.64 in 3.0 mi NNE 17.3 mph - 0.02 in   Mostly Cloudy
9:35 AM 44.6 °F 41.4 °F 41.0 °F 87% 29.69 in 5.0 mi NNW 5.8 mph - N/A   Mostly Cloudy
9:55 AM 44.6 °F 42.2 °F 41.0 °F 87% 29.70 in 5.0 mi WNW 4.6 mph - N/A   Overcast
10:35 AM 46.4 °F 42.4 °F 42.8 °F 87% 29.73 in 5.0 mi West 8.1 mph - N/A   Overcast
10:55 AM 46.4 °F 42.4 °F 42.8 °F 87% 29.73 in 5.0 mi West 8.1 mph - N/A   Overcast
11:15 AM 50.0 °F - 44.6 °F 82% 29.73 in 5.0 mi WNW 6.9 mph - N/A   Mostly Cloudy
11:35 AM 50.0 °F - 46.4 °F 87% 29.75 in 5.0 mi West 6.9 mph - N/A   Scattered Clouds
11:55 AM 51.8 °F - 46.4 °F 82% 29.75 in 5.0 mi WNW 5.8 mph - N/A   Scattered Clouds
12:15 PM 53.6 °F - 48.2 °F 82% 29.75 in 7.0 mi West 4.6 mph - N/A   Clear
12:35 PM 55.4 °F - 50.0 °F 82% 29.76 in 10.0 mi West 5.8 mph - N/A   Clear
12:55 PM 55.4 °F - 50.0 °F 82% 29.75 in 10.0 mi West 4.6 mph - N/A   Clear
1:15 PM 59.0 °F - 50.0 °F 72% 29.76 in 10.0 mi West 5.8 mph - N/A   Clear
1:35 PM 59.0 °F - 50.0 °F 72% 29.76 in 10.0 mi West 3.5 mph - N/A   Clear
1:55 PM 60.8 °F - 48.2 °F 63% 29.77 in 10.0 mi WNW 4.6 mph - N/A   Clear
2:15 PM 60.8 °F - 48.2 °F 63% 29.76 in 10.0 mi West 6.9 mph - N/A   Scattered Clouds
2:35 PM 62.6 °F - 50.0 °F 63% 29.77 in 10.0 mi WSW 9.2 mph - N/A   Mostly Cloudy
3:15 PM 62.6 °F - 50.0 °F 63% 29.77 in 10.0 mi West 8.1 mph - N/A   Scattered Clouds
3:35 PM 62.6 °F - 50.0 °F 63% 29.77 in 10.0 mi West 5.8 mph - N/A   Mostly Cloudy
3:55 PM 62.6 °F - 50.0 °F 63% 29.77 in 10.0 mi WSW 4.6 mph - N/A   Overcast
4:15 PM 62.6 °F - 50.0 °F 63% 29.77 in 10.0 mi West 4.6 mph - N/A   Mostly Cloudy
4:35 PM 62.6 °F - 51.8 °F 68% 29.78 in 10.0 mi Calm Calm - N/A   Scattered Clouds
4:55 PM 64.4 °F - 50.0 °F 59% 29.78 in 10.0 mi NE 3.5 mph - N/A   Scattered Clouds
5:15 PM 64.4 °F - 50.0 °F 59% 29.79 in 10.0 mi Calm Calm - N/A   Mostly Cloudy
5:35 PM 64.4 °F - 50.0 °F 59% 29.80 in 10.0 mi NE 4.6 mph - N/A   Overcast
5:55 PM 62.6 °F - 50.0 °F 63% 29.81 in 10.0 mi NNE 5.8 mph - N/A   Mostly Cloudy
6:15 PM 62.6 °F - 51.8 °F 68% 29.81 in 10.0 mi NNE 5.8 mph - N/A   Scattered Clouds
6:35 PM 62.6 °F - 51.8 °F 68% 29.83 in 10.0 mi NNE 4.6 mph - N/A   Clear
6:55 PM 60.8 °F - 51.8 °F 72% 29.83 in 10.0 mi NE 4.6 mph - N/A   Clear
7:15 PM 60.8 °F - 51.8 °F 72% 29.84 in 10.0 mi NE 5.8 mph - N/A   Clear
7:55 PM 59.0 °F - 50.0 °F 72% 29.85 in 10.0 mi NE 6.9 mph - N/A   Clear
8:15 PM 57.2 °F - 50.0 °F 77% 29.86 in 10.0 mi NE 5.8 mph - N/A   Clear
8:35 PM 55.4 °F - 50.0 °F 82% 29.87 in 10.0 mi NE 4.6 mph - N/A   Clear
8:55 PM 55.4 °F - 48.2 °F 77% 29.88 in 10.0 mi NE 5.8 mph - N/A   Clear
9:15 PM 55.4 °F - 48.2 °F 77% 29.89 in 10.0 mi NE 6.9 mph - N/A   Clear
9:35 PM 55.4 °F - 48.2 °F 77% 29.90 in 10.0 mi NE 6.9 mph - N/A   Clear
9:55 PM 53.6 °F - 48.2 °F 82% 29.90 in 10.0 mi NE 11.5 mph - N/A   Clear
10:15 PM 51.8 °F - 46.4 °F 82% 29.92 in 10.0 mi ENE 10.4 mph - N/A   Clear
10:35 PM 50.0 °F - 46.4 °F 87% 29.93 in 10.0 mi NE 11.5 mph - N/A   Clear
10:55 PM 50.0 °F - 44.6 °F 82% 29.93 in 10.0 mi NE 11.5 mph - N/A   Clear
11:15 PM 48.2 °F - 44.6 °F 87% 29.94 in 7.0 mi ENE 12.7 mph - N/A   Clear
11:35 PM 46.4 °F 41.1 °F 44.6 °F 93% 29.93 in 7.0 mi ENE 11.5 mph - N/A   Clear
11:55 PM 46.4 °F 40.7 °F 42.8 °F 87% 29.93 in 7.0 mi NE 12.7 mph 18.4 mph N/A   Clear